Regional Weather Roundup
Issued by NWS Goodland, KS

Home | Current Version | Previous Version | Graphics & Text | Print | Product List | Glossary Off
Versions: 1 2 3 4 5 6 7 8 9 10 11 12 13 14 15 16 17 18 19 20 21 22 23 24 25 26 27 28 29 30 31 32 33 34 35 36 37 38 39 40 41 42 43 44 45 46 47 48 49 50

959
ASUS43 KGLD 091859
RWRGLD

GOODLAND FORECAST AREA HOURLY WEATHER ROUNDUP
NATIONAL WEATHER SERVICE GOODLAND KS
1200 PM MST FRI DEC 09 2016

...OFFICIAL OBSERVATIONS...

CITY           SKY/WX    TMP DP  RH WIND       PRES   REMARKS
GOODLAND KS    SUNNY     30  20  66 S18       30.17F WCI  18
HILL CITY KS   CLOUDY    28  11  48 S13G25    30.33F WCI  17
IMPERIAL NEB   PTSUNNY   24  15  68 S14       30.20F WCI  12
MCCOOK NEB     CLOUDY    26  14  60 S12       30.28F WCI  16
AKRON CO       SUNNY     24  12  60 W6        30.11F
BURLINGTON CO  SUNNY     36  18  48 S15       30.13F
LIMON CO       SUNNY     36  20  52 CALM      30.10F
$$

...UNOFFICIAL OBSERVATIONS...

CITY           SKY/WX    TMP DP  RH WIND       PRES   REMARKS
COLBY KS       MOSUNNY   32  21  64 S14G22    30.23F
LENORA KS        N/A     26  32 100 MISG        N/A
NORTON KS      CLOUDY    28  10  47 SE14      30.32F WCI  17
SHARON SPRINGS   N/A     33  24  70 S18         N/A
TRENTON NEB      N/A     26  32 100 S9          N/A
KIT CARSON CO    N/A     34  15  44 MISG        N/A
YUMA CO        FAIR      21   9  58 CALM      30.14F
$$




USA.gov is the U.S. government's official web portal to all federal, state and local government web resources and services.